GW1603 Weather Reports


time (UTC)temp
F
wind
direction
speed
knots
gust
knots
rain 1hr
in
rain 24hr
in
rain mn
in
humidity
%
barometer
mb
20260906052306 79 292 0.0 0.0 0.00 0.00 0.00 82 1013.9
20260906051802 79 267 0.0 0.0 0.00 0.00 0.00 82 1014.0
20260906051301 79 199 1.7 1.7 0.00 0.00 0.00 81 1014.0
20260906050756 79 293 0.0 0.0 0.00 0.00 0.00 81 1014.0
20260906050252 79 293 0.0 0.0 0.00 0.00 0.00 79 1013.8
20260906045750 79 293 0.0 0.0 0.00 0.00 0.00 80 1013.8
20260906045245 80 293 0.0 0.0 0.00 0.00 0.00 80 1013.7
20260906044741 80 293 0.0 0.0 0.00 0.00 0.00 79 1013.7
20260906044236 80 293 0.0 0.0 0.00 0.00 0.00 78 1013.6
20260906043732 80 293 0.0 0.0 0.00 0.00 0.00 77 1013.6
20260906043227 81 293 0.0 0.0 0.00 0.00 0.00 77 1013.6
20260906042727 81 293 0.0 0.0 0.00 0.00 0.00 77 1013.5
20260906042226 81 293 0.0 0.0 0.00 0.00 0.00 77 1013.7
20260906041721 81 292 0.0 0.0 0.00 0.00 0.00 76 1013.7
20260906041216 81 293 0.0 0.0 0.00 0.00 0.00 76 1013.7
20260906040712 81 293 0.0 0.0 0.00 0.00 0.00 76 1013.6
20260906040207 81 293 0.0 0.0 0.00 0.00 0.00 76 1013.6
20260906035703 81 293 0.0 0.0 0.00 0.00 0.00 76 1013.5
20260906035158 81 293 0.0 0.0 0.00 0.00 0.00 75 1013.6
20260906034653 81 293 0.0 0.0 0.00 0.00 0.00 75 1013.6
20260906034148 81 293 0.0 0.0 0.00 0.00 0.00 76 1013.7
20260906033644 82 293 0.0 0.0 0.00 0.00 0.00 75 1013.8
20260906033138 82 293 0.0 0.0 0.00 0.00 0.00 74 1013.8
20260906032635 82 292 0.0 0.0 0.00 0.00 0.00 74 1013.8
20260906032134 82 292 0.0 0.0 0.00 0.00 0.00 73 1013.8
20260906031630 82 293 0.0 0.0 0.00 0.00 0.00 73 1013.7
20260906031125 82 293 0.0 0.0 0.00 0.00 0.00 73 1013.6
20260906030624 82 293 0.0 0.0 0.00 0.00 0.00 73 1013.6
20260906030120 82 293 0.0 0.0 0.00 0.00 0.00 73 1013.6
20260906025619 82 293 0.0 0.0 0.00 0.00 0.00 73 1013.4
20260906025118 82 293 0.0 0.0 0.00 0.00 0.00 73 1013.4
20260906024613 82 293 0.0 0.0 0.00 0.00 0.00 72 1013.5
20260906024107 82 293 0.0 0.0 0.00 0.00 0.00 72 1013.5
20260906023603 82 292 0.0 0.0 0.00 0.00 0.00 72 1013.7
20260906023058 82 294 0.0 0.9 0.00 0.00 0.00 73 1013.5
20260906022553 83 251 0.0 0.0 0.00 0.00 0.00 70 1013.5
20260906022049 83 251 0.0 0.0 0.00 0.00 0.00 69 1013.3
20260906021544 84 251 0.0 0.0 0.00 0.00 0.00 69 1013.4
20260906021043 84 251 0.0 0.0 0.00 0.00 0.00 69 1013.2
20260906020542 84 251 0.0 0.0 0.00 0.00 0.00 70 1013.1
20260906020036 84 251 0.0 0.0 0.00 0.00 0.00 69 1013.2
20260906015535 84 250 0.0 0.0 0.00 0.00 0.00 69 1013.0
20260906015030 85 250 0.0 0.0 0.00 0.00 0.00 68 1012.7
20260906014525 84 252 0.0 0.0 0.00 0.00 0.00 68 1012.9
20260906014021 85 252 0.0 0.0 0.00 0.00 0.00 68 1012.9
20260906013516 85 252 0.0 0.0 0.00 0.00 0.00 67 1012.9
20260906013011 86 252 0.0 0.0 0.00 0.00 0.00 66 1012.9
20260906012506 86 251 0.0 0.0 0.00 0.00 0.00 65 1012.8
20260906012006 86 251 0.0 0.0 0.00 0.00 0.00 65 1012.7
20260906011502 86 248 0.0 0.0 0.00 0.00 0.00 65 1012.5
20260906010956 87 289 0.0 0.0 0.00 0.00 0.00 64 1012.4
20260906010452 87 289 0.0 0.0 0.00 0.00 0.00 64 1012.3
20260906005948 87 290 0.0 0.0 0.00 0.00 0.00 63 1012.3
20260906005447 88 289 0.0 0.0 0.00 0.00 0.00 62 1012.3
20260906004946 88 289 0.0 0.0 0.00 0.00 0.00 61 1012.3
20260906004445 89 289 0.0 0.0 0.00 0.00 0.00 60 1012.4
20260906003941 89 289 0.0 0.0 0.00 0.00 0.00 59 1012.4
20260906003442 90 289 0.0 0.0 0.00 0.00 0.00 57 1012.4
20260906002937 91 116 0.0 0.0 0.00 0.00 0.00 56 1012.6
20260906002437 91 87 0.0 2.6 0.00 0.00 0.00 55 1012.4
20260906001932 91 130 0.9 0.9 0.00 0.00 0.00 55 1012.4
20260906001428 91 77 0.9 0.9 0.00 0.00 0.00 55 1012.5
20260906000923 92 309 0.0 0.0 0.00 0.00 0.00 54 1012.3
20260906000418 92 315 0.0 0.0 0.00 0.00 0.00 53 1012.4
20260905235912 93 306 0.0 0.0 0.00 0.00 0.00 53 1012.5
20260905235407 93 306 0.0 0.0 0.00 0.00 0.00 51 1012.5
20260905234902 94 309 0.0 0.0 0.00 0.00 0.00 50 1012.6
20260905234357 94 299 0.0 0.9 0.00 0.00 0.00 50 1012.5
20260905233852 95 355 0.9 1.7 0.00 0.00 0.00 49 1012.5
20260905233347 95 322 0.0 1.7 0.00 0.00 0.00 48 1012.6
20260905232847 96 55 1.7 2.6 0.00 0.00 0.00 47 1012.5
20260905232343 96 97 1.7 2.6 0.00 0.00 0.00 46 1012.5
20260905231838 96 70 0.9 0.9 0.00 0.00 0.00 46 1012.6
20260905231333 96 308 0.0 1.7 0.00 0.00 0.00 44 1012.5
20260905230830 97 107 1.7 1.7 0.00 0.00 0.00 44 1012.5
20260905230327 97 148 1.7 1.7 0.00 0.00 0.00 44 1012.6
20260905225826 97 122 1.7 1.7 0.00 0.00 0.00 44 1012.5
20260905225321 97 134 2.6 2.6 0.00 0.00 0.00 44 1012.5
20260905224816 98 47 0.9 1.7 0.00 0.00 0.00 44 1012.5
20260905224312 98 351 1.7 2.6 0.00 0.00 0.00 43 1012.5
20260905223807 98 0 0.9 1.7 0.00 0.00 0.00 43 1012.4
20260905223304 98 127 2.6 4.3 0.00 0.00 0.00 43 1012.6
20260905222759 97 351 1.7 2.6 0.00 0.00 0.00 44 1012.6
20260905222258 97 312 0.0 0.9 0.00 0.00 0.00 44 1012.4
20260905221754 98 339 0.0 0.9 0.00 0.00 0.00 43 1012.4
20260905221251 98 278 0.0 0.9 0.00 0.00 0.00 43 1012.5
20260905220746 97 5 0.9 6.1 0.00 0.00 0.00 44 1012.5
20260905220242 98 47 1.7 1.7 0.00 0.00 0.00 44 1012.4
20260905215741 99 339 2.6 5.2 0.00 0.00 0.00 42 1012.5
20260905215237 99 287 0.9 2.6 0.00 0.00 0.00 41 1012.7
20260905214733 100 79 1.7 2.6 0.00 0.00 0.00 41 1012.7
20260905214229 100 323 0.9 2.6 0.00 0.00 0.00 42 1012.8
20260905213723 100 317 0.9 2.6 0.00 0.00 0.00 41 1012.9
20260905213220 100 229 0.9 1.7 0.00 0.00 0.00 41 1012.6
20260905212714 101 13 4.3 7.0 0.00 0.00 0.00 41 1012.7
20260905212213 100 9 2.6 2.6 0.00 0.00 0.00 41 1012.7
20260905211708 101 304 0.0 5.2 0.00 0.00 0.00 41 1012.9
20260905211158 100 265 0.9 2.6 0.00 0.00 0.00 41 1012.8
20260905210655 99 71 0.9 1.7 0.00 0.00 0.00 43 1013.1
20260905210155 99 69 1.7 4.3 0.00 0.00 0.00 43 1012.9
20260905205654 97 18 0.9 2.6 0.00 0.00 0.00 46 1012.8
20260905205153 97 52 1.7 2.6 0.00 0.00 0.00 46 1012.8
20260905204653 97 61 0.9 2.6 0.00 0.00 0.00 46 1013.0
20260905204148 97 308 2.6 4.3 0.00 0.00 0.00 45 1013.2
20260905203643 98 32 0.9 2.6 0.00 0.00 0.00 45 1013.1
20260905203138 98 11 0.9 1.7 0.00 0.00 0.00 43 1013.0
20260905202634 99 109 0.9 2.6 0.00 0.00 0.00 41 1013.1
20260905202129 99 0 0.9 1.7 0.00 0.00 0.00 41 1013.1
20260905201624 100 339 0.9 0.9 0.00 0.00 0.00 40 1013.4
20260905201124 100 309 0.0 0.9 0.00 0.00 0.00 40 1013.4
20260905200620 102 101 1.7 1.7 0.00 0.00 0.00 38 1013.5
20260905200114 99 302 0.0 4.3 0.00 0.00 0.00 41 1013.6
20260905195608 100 94 5.2 6.1 0.00 0.00 0.00 40 1013.5
20260905195103 101 104 2.6 4.3 0.00 0.00 0.00 39 1013.7
20260905194603 102 75 2.6 4.3 0.00 0.00 0.00 39 1013.7
20260905194102 103 85 1.7 6.1 0.00 0.00 0.00 37 1013.7
20260905193557 102 356 1.7 5.2 0.00 0.00 0.00 37 1013.7
20260905193052 100 339 1.7 5.2 0.00 0.00 0.00 38 1013.7
20260905192548 99 309 0.0 4.3 0.00 0.00 0.00 39 1013.8
20260905192044 98 256 0.0 0.9 0.00 0.00 0.00 41 1013.8
20260905191542 98 98 1.7 2.6 0.00 0.00 0.00 41 1014.0
20260905191041 98 22 0.0 2.6 0.00 0.00 0.00 42 1014.2
20260905190539 99 57 1.7 2.6 0.00 0.00 0.00 40 1014.2
20260905190034 100 3 0.0 0.9 0.00 0.00 0.00 40 1014.1
20260905185533 101 281 0.0 1.7 0.00 0.00 0.00 38 1014.2
20260905185033 101 3 2.6 5.2 0.00 0.00 0.00 39 1014.4
20260905184527 100 38 0.9 5.2 0.00 0.00 0.00 38 1014.4
20260905184026 101 86 1.7 4.3 0.00 0.00 0.00 38 1014.4
20260905183525 100 333 1.7 5.2 0.00 0.00 0.00 38 1014.5
20260905183021 100 58 0.9 1.7 0.00 0.00 0.00 38 1014.5
20260905182515 101 88 0.9 4.3 0.00 0.00 0.00 38 1014.6
20260905182009 99 12 0.9 1.7 0.00 0.00 0.00 39 1014.8
20260905181504 97 304 0.0 0.9 0.00 0.00 0.00 42 1014.6
20260905181003 97 288 0.0 0.0 0.00 0.00 0.00 42 1014.7
20260905180458 97 289 0.0 0.9 0.00 0.00 0.00 42 1014.7
20260905175953 98 309 0.9 1.7 0.00 0.00 0.00 41 1014.8
20260905175453 99 301 1.7 4.3 0.00 0.00 0.00 40 1014.8
20260905174949 100 325 0.0 0.9 0.00 0.00 0.00 40 1014.9
20260905174443 100 350 2.6 2.6 0.00 0.00 0.00 39 1014.8
20260905173939 101 287 0.0 6.1 0.00 0.00 0.00 38 1014.8
20260905173436 100 357 1.7 5.2 0.00 0.00 0.00 39 1014.7
20260905172931 100 304 0.9 4.3 0.00 0.00 0.00 39 1014.8
20260905172429 101 293 0.9 2.6 0.00 0.00 0.00 39 1014.9
20260905171925 102 292 0.0 4.3 0.00 0.00 0.00 37 1014.6
20260905171421 101 325 0.9 1.7 0.00 0.00 0.00 39 1014.9
20260905170917 101 278 0.9 2.6 0.00 0.00 0.00 39 1015.2
20260905170413 100 273 0.9 2.6 0.00 0.00 0.00 39 1015.1
20260905165912 100 345 2.6 4.3 0.00 0.00 0.00 40 1015.3
20260905165408 100 285 1.7 6.1 0.00 0.00 0.00 40 1015.2
20260905164903 100 36 1.7 2.6 0.00 0.00 0.00 38 1015.2
20260905164357 99 348 2.6 4.3 0.00 0.00 0.00 39 1015.3
20260905163852 100 223 1.7 4.3 0.00 0.00 0.00 39 1015.3
20260905163349 100 287 2.6 2.6 0.00 0.00 0.00 40 1015.3
20260905162845 101 294 0.9 2.6 0.00 0.00 0.00 40 1015.4
20260905162344 100 284 0.9 1.7 0.00 0.00 0.00 41 1015.5
20260905161839 99 252 0.0 1.7 0.00 0.00 0.00 43 1015.3
20260905161338 98 217 1.7 5.2 0.00 0.00 0.00 43 1015.3
20260905160836 99 261 0.9 1.7 0.00 0.00 0.00 42 1015.4
20260905160331 99 304 0.0 1.7 0.00 0.00 0.00 42 1015.4
20260905155825 98 306 1.7 2.6 0.00 0.00 0.00 42 1015.5
20260905155325 98 338 0.9 2.6 0.00 0.00 0.00 44 1015.5
20260905154819 97 252 0.9 2.6 0.00 0.00 0.00 45 1015.8
20260905154314 97 313 0.9 4.3 0.00 0.00 0.00 44 1015.8
20260905153810 98 333 2.6 4.3 0.00 0.00 0.00 45 1015.7
20260905153307 98 321 0.9 2.6 0.00 0.00 0.00 45 1015.7
20260905152806 98 315 2.6 2.6 0.00 0.00 0.00 43 1015.6
20260905152306 98 256 2.6 2.6 0.00 0.00 0.00 45 1015.6
20260905151800 97 255 1.7 1.7 0.00 0.00 0.00 47 1015.7
20260905151256 96 304 0.9 2.6 0.00 0.00 0.00 47 1015.7
20260905150750 96 269 0.0 1.7 0.00 0.00 0.00 47 1015.7
20260905150249 96 331 0.0 2.6 0.00 0.00 0.00 48 1015.8
20260905145747 96 298 1.7 2.6 0.00 0.00 0.00 48 1015.7
20260905145242 95 279 0.9 2.6 0.00 0.00 0.00 49 1015.5
20260905144741 95 359 2.6 4.3 0.00 0.00 0.00 48 1015.5
20260905144237 95 276 0.0 1.7 0.00 0.00 0.00 49 1015.7
20260905143735 94 297 0.9 2.6 0.00 0.00 0.00 51 1015.7
20260905143235 94 286 0.9 1.7 0.00 0.00 0.00 52 1015.5
20260905142733 95 306 0.9 0.9 0.00 0.00 0.00 51 1015.8
20260905142228 94 302 0.9 0.9 0.00 0.00 0.00 53 1015.7
20260905141724 94 236 1.7 1.7 0.00 0.00 0.00 54 1015.7
20260905141220 93 280 0.0 0.9 0.00 0.00 0.00 55 1015.7
20260905140715 92 285 0.0 0.9 0.00 0.00 0.00 56 1015.7
20260905140209 92 270 0.9 0.9 0.00 0.00 0.00 57 1015.9
20260905135704 91 293 0.0 0.9 0.00 0.00 0.00 59 1016.1
20260905135200 90 274 0.0 0.0 0.00 0.00 0.00 62 1015.7
20260905134659 89 294 0.0 1.7 0.00 0.00 0.00 61 1015.7
20260905134158 89 288 0.0 0.9 0.00 0.00 0.00 61 1015.7
20260905133653 91 325 0.9 0.9 0.00 0.00 0.00 60 1015.7
20260905133148 89 249 0.0 0.9 0.00 0.00 0.00 62 1015.6
20260905132647 88 299 0.0 0.0 0.00 0.00 0.00 64 1015.6
20260905132142 87 265 0.0 0.9 0.00 0.00 0.00 67 1015.4
20260905131637 85 282 0.0 0.0 0.00 0.00 0.00 72 1015.6
20260905131132 86 282 0.0 0.0 0.00 0.00 0.00 68 1015.6
20260905130627 86 281 0.0 0.0 0.00 0.00 0.00 71 1015.6
20260905130126 83 281 0.0 0.0 0.00 0.00 0.00 71 1015.7
20260905125621 81 281 0.0 0.0 0.00 0.00 0.00 76 1015.4
20260905125117 79 281 0.0 0.0 0.00 0.00 0.00 79 1015.5
20260905124613 78 280 0.0 0.0 0.00 0.00 0.00 81 1015.5
20260905124109 77 280 0.0 0.0 0.00 0.00 0.00 83 1015.5
20260905123604 76 280 0.0 0.0 0.00 0.00 0.00 85 1015.5
20260905123101 76 280 0.0 0.0 0.00 0.00 0.00 86 1015.3
20260905122601 75 280 0.0 0.0 0.00 0.00 0.00 86 1015.5
20260905122055 75 280 0.0 0.0 0.00 0.00 0.00 86 1015.2
20260905121550 75 280 0.0 0.0 0.00 0.00 0.00 87 1015.1
20260905121045 75 281 0.0 0.0 0.00 0.00 0.00 88 1015.1
20260905120544 75 281 0.0 0.0 0.00 0.00 0.00 87 1015.2
20260905120040 75 281 0.0 0.0 0.00 0.00 0.00 87 1015.1
20260905115538 75 282 0.0 0.0 0.00 0.00 0.00 86 1015.1
20260905115033 75 282 0.0 0.0 0.00 0.00 0.00 85 1014.9
20260905114533 75 282 0.0 0.0 0.00 0.00 0.00 86 1014.9
20260905114032 75 292 0.0 0.0 0.00 0.00 0.00 86 1015.1
20260905113527 75 291 0.0 0.0 0.00 0.00 0.00 87 1014.9
20260905113022 74 294 0.0 0.0 0.00 0.00 0.00 88 1014.9
20260905112518 75 299 0.0 0.9 0.00 0.00 0.00 88 1014.8
20260905112013 76 303 0.0 0.9 0.00 0.00 0.00 85 1014.8
20260905111513 75 275 0.0 0.0 0.00 0.00 0.00 85 1014.8
20260905111007 75 275 0.0 0.0 0.00 0.00 0.00 86 1014.9
20260905110506 74 275 0.0 0.0 0.00 0.00 0.00 87 1015.0
20260905110001 74 275 0.0 0.0 0.00 0.00 0.00 87 1014.8
20260905105455 74 275 0.0 0.0 0.00 0.00 0.00 87 1014.8
20260905104954 74 275 0.0 0.0 0.00 0.00 0.00 88 1014.5
20260905104450 74 275 0.0 0.0 0.00 0.00 0.00 88 1014.9
20260905103945 74 275 0.0 0.0 0.00 0.00 0.00 88 1014.9
20260905103440 74 275 0.0 0.0 0.00 0.00 0.00 88 1014.9
20260905102937 75 275 0.0 0.0 0.00 0.00 0.00 87 1014.9
20260905102432 75 275 0.0 0.0 0.00 0.00 0.00 88 1014.8
20260905101927 75 275 0.0 0.0 0.00 0.00 0.00 88 1014.8
20260905101426 75 275 0.0 0.0 0.00 0.00 0.00 87 1015.0
20260905100921 76 275 0.0 0.0 0.00 0.00 0.00 85 1014.9
20260905100417 77 275 0.0 0.0 0.00 0.00 0.00 83 1015.0
20260905095916 77 275 0.0 0.0 0.00 0.00 0.00 81 1014.7
20260905095410 77 274 0.0 0.0 0.00 0.00 0.00 82 1014.8
20260905094905 76 274 0.0 0.0 0.00 0.00 0.00 83 1014.6
20260905094401 76 274 0.0 0.0 0.00 0.00 0.00 84 1014.4
20260905093859 76 275 0.0 0.0 0.00 0.00 0.00 84 1014.7
20260905093355 77 275 0.0 0.0 0.00 0.00 0.00 84 1014.5
20260905092850 77 274 0.0 0.0 0.00 0.00 0.00 81 1014.7
20260905092345 76 274 0.0 0.0 0.00 0.00 0.00 82 1014.9
20260905091840 76 274 0.0 0.0 0.00 0.00 0.00 84 1014.6
20260905091339 76 275 0.0 0.0 0.00 0.00 0.00 84 1014.8
20260905090838 76 275 0.0 0.0 0.00 0.00 0.00 84 1014.8
20260905090335 76 275 0.0 0.0 0.00 0.00 0.00 84 1014.8
20260905085833 76 275 0.0 0.0 0.00 0.00 0.00 84 1014.6
20260905085328 76 275 0.0 0.0 0.00 0.00 0.00 83 1014.7
20260905084824 76 274 0.0 0.0 0.00 0.00 0.00 83 1014.6
20260905084323 76 274 0.0 0.0 0.00 0.00 0.00 84 1014.6
20260905083818 76 275 0.0 0.0 0.00 0.00 0.00 84 1014.6
20260905083314 76 274 0.0 0.0 0.00 0.00 0.00 84 1014.8
20260905082809 76 274 0.0 0.0 0.00 0.00 0.00 84 1014.6
20260905082307 75 274 0.0 0.0 0.00 0.00 0.00 83 1014.5
20260905081805 75 274 0.0 0.0 0.00 0.00 0.00 84 1014.6
20260905081301 75 274 0.0 0.0 0.00 0.00 0.00 84 1014.6
20260905080759 75 274 0.0 0.0 0.00 0.00 0.00 86 1014.6
20260905080254 76 274 0.0 0.0 0.00 0.00 0.00 86 1014.7
20260905075752 76 274 0.0 0.0 0.00 0.00 0.00 85 1014.7
20260905075247 76 274 0.0 0.0 0.00 0.00 0.00 85 1014.5
20260905074746 76 274 0.0 0.0 0.00 0.00 0.00 84 1014.6
20260905074242 76 274 0.0 0.0 0.00 0.00 0.00 84 1014.6
20260905073737 76 274 0.0 0.0 0.00 0.00 0.00 84 1014.6
20260905073232 76 274 0.0 0.0 0.00 0.00 0.00 85 1014.6
20260905072731 76 274 0.0 0.0 0.00 0.00 0.00 86 1014.6
20260905072227 76 274 0.0 0.0 0.00 0.00 0.00 86 1014.8
20260905071724 76 274 0.0 0.0 0.00 0.00 0.00 86 1014.8
20260905071220 76 274 0.0 0.0 0.00 0.00 0.00 85 1014.6
20260905070714 77 274 0.0 0.0 0.00 0.00 0.00 85 1014.8
20260905070211 77 274 0.0 0.0 0.00 0.00 0.00 84 1014.8
20260905065709 77 274 0.0 0.0 0.00 0.00 0.00 84 1014.7
20260905065203 77 274 0.0 0.0 0.00 0.00 0.00 84 1014.8
20260905064659 77 274 0.0 0.0 0.00 0.00 0.00 84 1014.9
20260905064154 77 274 0.0 0.0 0.00 0.00 0.00 85 1014.8
20260905063653 77 274 0.0 0.0 0.00 0.00 0.00 83 1015.0
20260905063149 77 274 0.0 0.0 0.00 0.00 0.00 83 1015.1
20260905062645 77 274 0.0 0.0 0.00 0.00 0.00 84 1014.9
20260905062144 77 274 0.0 0.0 0.00 0.00 0.00 85 1014.8
20260905061639 76 274 0.0 0.0 0.00 0.00 0.00 84 1014.7
20260905061138 77 274 0.0 0.0 0.00 0.00 0.00 85 1014.9
20260905060633 77 274 0.0 0.0 0.00 0.00 0.00 85 1015.0
20260905060130 77 274 0.0 0.0 0.00 0.00 0.00 83 1015.0
20260905055628 78 274 0.0 0.0 0.00 0.00 0.00 83 1015.0
20260905055124 78 274 0.0 0.0 0.00 0.00 0.00 82 1015.0
20260905054619 78 274 0.0 0.0 0.00 0.00 0.00 82 1014.8
20260905054114 78 274 0.0 0.0 0.00 0.00 0.00 81 1015.0
20260905053609 78 274 0.0 0.0 0.00 0.00 0.00 81 1014.9
20260905053104 78 273 0.0 0.0 0.00 0.00 0.00 82 1015.0